Flag for U.S.A. Weather past 2 weeks in Buffalo, New York, U.S.A.

Now
9 °F

Passing clouds.


Feels Like: -4 °F
Forecast: -1 / 18 °F
Wind: 9 mph from West

Location: Greater Buffalo International Airport

Current Time: Mar 5, 2015 at 9:51:58 PM

Latest Report: Mar 5, 2015 at 8:54 PM


Visibility: 10 mi

Pressure: 30.49 "Hg

Humidity: 61%

Dew point: -2 °F

Location of BuffaloLocation

Historic Weather in Buffalo — Graph

°F

Buffalo temperature yesterday

Maximum temperature yesterday: 34 °F (at 12:54 AM)
Minimum temperature yesterday: 25 °F (at 11:54 PM)
Average temperature yesterday: 31 °F

Past Weeks' High & Low Weather Summary

 TemperatureHumidityPressure
High37 °F (Mar 3, 7:54 PM)93% (Mar 3, 8:54 PM)30.83 "Hg (Mar 3, 8:54 PM)
Low-8 °F (Feb 20, 1:54 AM)36% (Feb 24, 12:54 PM)29.59 "Hg (Mar 3, 7:54 PM)
Average13 °F71%30.22 "Hg
* Reported Feb 18 8:54 PM — Mar 5 8:54 PM, Buffalo, Weather by CustomWeather, © 2015

Note: Actual official high and low records may vary slightly from our data, if they occured in-between our weather recording intervals... More about our weather records

Advertising

Buffalo weather history for previous 24 hours

 ConditionsComfort  
Time TempWeatherWind HumidityBarometerVisibility
8:54 PM
Thu, Mar 5
9 °FPassing clouds.9 mph61%30.49 "Hg10 mi
7:54 PM9 °FPassing clouds.8 mph64%30.47 "Hg10 mi
6:54 PM9 °FPassing clouds.9 mph64%30.44 "Hg10 mi
5:54 PM10 °FPartly sunny.14 mph64%30.40 "Hg10 mi
4:54 PM11 °FPartly sunny.12 mph61%30.38 "Hg10 mi
3:54 PM12 °FPartly sunny.9 mph58%30.36 "Hg10 mi
2:54 PM13 °FLight snow. Broken clouds.9 mph64%30.34 "Hg3 mi
1:54 PM11 °FLight snow. Partly sunny.10 mph70%30.34 "Hg1 mi
12:54 PM12 °FLight snow. Broken clouds.7 mph61%30.34 "Hg5 mi
11:54 AM11 °FLight snow. More clouds than sun.6 mph61%30.33 "Hg9 mi
10:54 AM10 °FLight snow. Mostly cloudy.8 mph67%30.34 "Hg2 mi
9:54 AM9 °FLight snow. Overcast.9 mph70%30.33 "Hg4 mi
8:54 AM9 °FLight snow. Mostly cloudy.8 mph66%30.34 "Hg9 mi
7:54 AM9 °FLight snow. Partly sunny.12 mph64%30.30 "Hg10 mi
6:54 AM10 °FOvercast.9 mph61%30.29 "Hg10 mi
5:54 AM11 °FOvercast.10 mph56%30.27 "Hg10 mi
4:54 AM12 °FMostly cloudy.16 mph56%30.26 "Hg10 mi
3:54 AM14 °FMostly cloudy.15 mph53%30.23 "Hg9 mi
2:54 AM15 °FLight snow. Overcast.17 mph61%30.22 "Hg9 mi
1:54 AM17 °FLight snow. Overcast.20 mph74%30.18 "Hg5 mi
12:54 AM19 °FLight snow. Mostly cloudy.16 mph81%30.14 "Hg2 mi
11:54 PM
Wed, Mar 4
25 °FLight snow. Mostly cloudy.20 mph63%30.08 "Hg9 mi
10:54 PM27 °FPartly cloudy.18 mph69%30.04 "Hg10 mi
9:54 PM28 °FLight snow. Mostly cloudy.10 mph78%30.01 "Hg6 mi
Weather by CustomWeather, © 2015

See weather overviewHow to use our weather pages